Time,TemperatureF,DewpointF,PressureIn,WindDirection,WindDirectionDegrees,WindSpeedMPH,WindSpeedGustMPH,Humidity,HourlyPrecipIn,Conditions,Clouds,dailyrainin,SolarRadiationWatts/m^2,SoftwareType,DateUTC
2013-04-25 00:02:00,60.2,55.0,29.84,SE,127,0.0,9.0,83,0.00,,,0.00,0,Wunderground v.1.15,2013-04-25 07:02:00,
2013-04-25 00:08:00,60.2,55.0,29.84,SE,127,0.0,9.0,83,0.00,,,0.00,0,Wunderground v.1.15,2013-04-25 07:08:00,
2013-04-25 00:13:00,60.0,54.8,29.84,SE,129,0.0,1.0,83,0.00,,,0.00,0,Wunderground v.1.15,2013-04-25 07:13:00,
2013-04-25 00:18:00,59.9,55.1,29.84,SE,128,0.0,1.0,84,0.00,,,0.00,0,Wunderground v.1.15,2013-04-25 07:18:00,
2013-04-25 00:23:00,59.9,55.1,29.84,SE,129,0.0,0.0,84,0.00,,,0.00,0,Wunderground v.1.15,2013-04-25 07:23:00,
2013-04-25 00:29:00,59.9,54.7,29.85,SE,129,0.0,0.0,83,0.00,,,0.00,0,Wunderground v.1.15,2013-04-25 07:29:00,
2013-04-25 00:35:00,59.7,54.9,29.85,SE,129,0.0,0.0,84,0.00,,,0.00,0,Wunderground v.1.15,2013-04-25 07:35:00,
2013-04-25 00:40:00,59.4,54.6,29.85,SE,129,0.0,0.0,84,0.00,,,0.00,0,Wunderground v.1.15,2013-04-25 07:40:00,
2013-04-25 00:46:00,59.0,54.8,29.85,SE,129,0.0,1.0,86,0.00,,,0.00,0,Wunderground v.1.15,2013-04-25 07:46:00,
2013-04-25 00:51:00,58.5,54.6,29.85,SE,137,1.0,3.0,87,0.00,,,0.00,0,Wunderground v.1.15,2013-04-25 07:51:00,
2013-04-25 00:57:00,58.2,54.3,29.85,SE,129,2.0,5.0,87,0.00,,,0.00,0,Wunderground v.1.15,2013-04-25 07:57:00,
2013-04-25 01:02:00,58.1,54.2,29.85,SE,129,0.0,4.0,87,0.00,,,0.00,0,Wunderground v.1.15,2013-04-25 08:02:00,
2013-04-25 01:08:00,58.0,54.2,29.85,SE,129,0.0,4.0,87,0.00,,,0.00,0,Wunderground v.1.15,2013-04-25 08:08:00,
2013-04-25 01:13:00,57.9,54.4,29.85,SE,129,0.0,0.0,88,0.00,,,0.00,0,Wunderground v.1.15,2013-04-25 08:13:00,
2013-04-25 01:18:00,57.8,54.3,29.85,SE,134,0.0,2.0,88,0.00,,,0.00,0,Wunderground v.1.15,2013-04-25 08:18:00,
2013-04-25 01:24:00,57.9,54.1,29.85,SE,135,1.0,1.0,87,0.00,,,0.00,0,Wunderground v.1.15,2013-04-25 08:24:00,
2013-04-25 01:29:00,57.7,54.2,29.85,SE,144,0.0,1.0,88,0.00,,,0.00,0,Wunderground v.1.15,2013-04-25 08:29:00,
2013-04-25 01:35:00,57.4,53.9,29.86,SE,146,0.0,1.0,88,0.00,,,0.00,0,Wunderground v.1.15,2013-04-25 08:35:00,
2013-04-25 01:40:00,57.2,53.7,29.86,SSE,148,0.0,0.0,88,0.00,,,0.00,0,Wunderground v.1.15,2013-04-25 08:40:00,
2013-04-25 01:46:00,56.9,53.4,29.86,SE,138,1.0,1.0,88,0.00,,,0.00,0,Wunderground v.1.15,2013-04-25 08:46:00,
2013-04-25 01:51:00,57.0,53.8,29.86,SE,134,2.0,3.0,89,0.00,,,0.00,0,Wunderground v.1.15,2013-04-25 08:51:00,
2013-04-25 01:57:00,56.9,53.7,29.86,SE,142,2.0,6.0,89,0.00,,,0.00,0,Wunderground v.1.15,2013-04-25 08:57:00,
2013-04-25 02:03:00,56.8,53.6,29.86,SE,145,2.0,5.0,89,0.00,,,0.00,0,Wunderground v.1.15,2013-04-25 09:03:00,
2013-04-25 02:08:00,56.8,53.6,29.86,SE,135,1.0,5.0,89,0.00,,,0.00,0,Wunderground v.1.15,2013-04-25 09:08:00,
2013-04-25 02:14:00,56.8,53.3,29.86,SE,137,1.0,5.0,88,0.00,,,0.00,0,Wunderground v.1.15,2013-04-25 09:14:00,
2013-04-25 02:19:00,56.7,53.2,29.86,ESE,119,5.0,5.0,88,0.00,,,0.00,0,Wunderground v.1.15,2013-04-25 09:19:00,
2013-04-25 02:25:00,56.6,53.4,29.86,SE,127,0.0,5.0,89,0.00,,,0.00,0,Wunderground v.1.15,2013-04-25 09:25:00,
2013-04-25 02:30:00,56.5,53.0,29.87,SE,141,1.0,5.0,88,0.00,,,0.00,0,Wunderground v.1.15,2013-04-25 09:30:00,
2013-04-25 02:36:00,56.5,53.0,29.87,SE,127,0.0,5.0,88,0.00,,,0.00,0,Wunderground v.1.15,2013-04-25 09:36:00,
2013-04-25 02:41:00,56.5,53.0,29.87,ESE,122,2.0,5.0,88,0.00,,,0.00,0,Wunderground v.1.15,2013-04-25 09:41:00,
2013-04-25 02:46:00,56.4,52.9,29.87,SE,124,0.0,5.0,88,0.00,,,0.00,0,Wunderground v.1.15,2013-04-25 09:46:00,
2013-04-25 02:52:00,56.4,52.6,29.87,SE,126,0.0,5.0,87,0.00,,,0.00,0,Wunderground v.1.15,2013-04-25 09:52:00,
2013-04-25 02:57:00,56.3,52.8,29.88,ESE,116,0.0,5.0,88,0.00,,,0.00,0,Wunderground v.1.15,2013-04-25 09:57:00,
2013-04-25 03:03:00,56.1,52.6,29.87,SE,130,1.0,6.0,88,0.00,,,0.00,0,Wunderground v.1.15,2013-04-25 10:03:00,
2013-04-25 03:08:00,56.0,52.5,29.88,SE,136,1.0,6.0,88,0.00,,,0.00,0,Wunderground v.1.15,2013-04-25 10:08:00,
2013-04-25 03:14:00,55.9,52.4,29.87,SE,130,3.0,12.0,88,0.00,,,0.00,0,Wunderground v.1.15,2013-04-25 10:14:00,
2013-04-25 03:19:00,55.8,52.3,29.88,SE,140,1.0,12.0,88,0.00,,,0.00,0,Wunderground v.1.15,2013-04-25 10:19:00,
2013-04-25 03:25:00,55.8,52.3,29.88,SSE,164,2.0,7.0,88,0.00,,,0.00,0,Wunderground v.1.15,2013-04-25 10:25:00,
2013-04-25 03:30:00,55.7,52.2,29.88,SE,138,3.0,3.0,88,0.00,,,0.00,0,Wunderground v.1.15,2013-04-25 10:30:00,
2013-04-25 03:36:00,55.7,52.2,29.88,SE,132,6.0,6.0,88,0.00,,,0.00,0,Wunderground v.1.15,2013-04-25 10:36:00,
2013-04-25 03:41:00,55.6,52.1,29.88,SE,132,3.0,3.0,88,0.00,,,0.00,0,Wunderground v.1.15,2013-04-25 10:41:00,
2013-04-25 03:47:00,55.5,52.0,29.89,SE,131,2.0,5.0,88,0.00,,,0.00,0,Wunderground v.1.15,2013-04-25 10:47:00,
2013-04-25 03:53:00,55.4,52.2,29.89,SE,127,4.0,4.0,89,0.00,,,0.00,0,Wunderground v.1.15,2013-04-25 10:53:00,
2013-04-25 03:58:00,55.3,52.1,29.90,SE,138,2.0,4.0,89,0.00,,,0.00,0,Wunderground v.1.15,2013-04-25 10:58:00,
2013-04-25 04:04:00,55.2,52.0,29.90,SSE,155,0.0,7.0,89,0.00,,,0.00,0,Wunderground v.1.15,2013-04-25 11:04:00,
2013-04-25 04:09:00,55.2,52.0,29.90,SE,126,0.0,7.0,89,0.00,,,0.00,0,Wunderground v.1.15,2013-04-25 11:09:00,
2013-04-25 04:15:00,55.2,52.0,29.91,ESE,119,0.0,2.0,89,0.00,,,0.00,0,Wunderground v.1.15,2013-04-25 11:15:00,
2013-04-25 04:20:00,55.1,51.9,29.91,SE,130,2.0,2.0,89,0.00,,,0.00,0,Wunderground v.1.15,2013-04-25 11:20:00,
2013-04-25 04:25:00,55.0,51.8,29.91,ESE,122,1.0,2.0,89,0.00,,,0.00,0,Wunderground v.1.15,2013-04-25 11:25:00,
2013-04-25 04:31:00,54.8,51.6,29.91,SE,128,3.0,3.0,89,0.00,,,0.00,0,Wunderground v.1.15,2013-04-25 11:31:00,
2013-04-25 04:37:00,54.7,51.8,29.91,ESE,116,3.0,4.0,90,0.00,,,0.00,0,Wunderground v.1.15,2013-04-25 11:37:00,
2013-04-25 04:43:00,54.5,51.9,29.91,ESE,120,1.0,3.0,91,0.00,,,0.00,0,Wunderground v.1.15,2013-04-25 11:43:00,
2013-04-25 04:48:00,54.5,51.6,29.91,ESE,106,0.0,3.0,90,0.00,,,0.00,0,Wunderground v.1.15,2013-04-25 11:48:00,
2013-04-25 04:53:00,54.4,51.5,29.91,ESE,110,0.0,1.0,90,0.00,,,0.00,0,Wunderground v.1.15,2013-04-25 11:53:00,
2013-04-25 04:59:00,54.3,51.7,29.91,SE,143,0.0,3.0,91,0.00,,,0.00,0,Wunderground v.1.15,2013-04-25 11:59:00,
2013-04-25 05:04:00,54.2,51.6,29.91,SE,130,2.0,10.0,91,0.00,,,0.00,0,Wunderground v.1.15,2013-04-25 12:04:00,
2013-04-25 05:10:00,54.0,51.4,29.91,SE,131,2.0,2.0,91,0.00,,,0.00,0,Wunderground v.1.15,2013-04-25 12:10:00,
2013-04-25 05:16:00,54.0,51.4,29.91,SE,138,1.0,5.0,91,0.00,,,0.00,0,Wunderground v.1.15,2013-04-25 12:16:00,
2013-04-25 05:21:00,53.9,51.3,29.91,SE,124,0.0,0.0,91,0.00,,,0.00,0,Wunderground v.1.15,2013-04-25 12:21:00,
2013-04-25 05:27:00,54.0,51.4,29.91,SE,124,0.0,0.0,91,0.00,,,0.00,0,Wunderground v.1.15,2013-04-25 12:27:00,
2013-04-25 05:32:00,53.8,51.2,29.91,SE,124,0.0,1.0,91,0.00,,,0.00,0,Wunderground v.1.15,2013-04-25 12:32:00,
2013-04-25 05:37:00,53.6,51.3,29.92,ESE,118,1.0,1.0,92,0.00,,,0.00,0,Wunderground v.1.15,2013-04-25 12:37:00,
2013-04-25 05:43:00,53.4,51.4,29.92,SE,133,2.0,3.0,93,0.00,,,0.00,0,Wunderground v.1.15,2013-04-25 12:43:00,
2013-04-25 05:48:00,53.2,51.2,29.92,SE,134,0.0,5.0,93,0.00,,,0.00,0,Wunderground v.1.15,2013-04-25 12:48:00,
2013-04-25 05:54:00,53.2,51.2,29.93,ESE,119,1.0,4.0,93,0.00,,,0.00,0,Wunderground v.1.15,2013-04-25 12:54:00,
2013-04-25 06:00:00,53.1,51.1,29.93,SE,124,3.0,3.0,93,0.00,,,0.00,0,Wunderground v.1.15,2013-04-25 13:00:00,
2013-04-25 06:08:00,52.9,51.2,29.94,SE,131,4.0,7.0,94,0.00,,,0.00,0,Wunderground v.1.15,2013-04-25 13:08:00,
2013-04-25 06:13:00,52.9,51.2,29.94,ESE,123,3.0,3.0,94,0.00,,,0.00,0,Wunderground v.1.15,2013-04-25 13:13:00,
2013-04-25 06:18:00,52.7,51.3,29.95,SSE,155,2.0,4.0,95,0.00,,,0.00,0,Wunderground v.1.15,2013-04-25 13:18:00,
2013-04-25 06:23:00,52.6,51.2,29.95,ESE,119,1.0,3.0,95,0.00,,,0.00,0,Wunderground v.1.15,2013-04-25 13:23:00,
2013-04-25 06:29:00,52.6,51.5,29.96,ESE,123,0.0,3.0,96,0.00,,,0.00,0,Wunderground v.1.15,2013-04-25 13:29:00,
2013-04-25 06:35:00,52.5,51.4,29.96,SE,136,2.0,4.0,96,0.00,,,0.00,0,Wunderground v.1.15,2013-04-25 13:35:00,
2013-04-25 06:40:00,52.3,51.2,29.96,SE,127,5.0,5.0,96,0.00,,,0.00,0,Wunderground v.1.15,2013-04-25 13:40:00,
2013-04-25 06:45:00,52.1,51.0,29.97,ESE,122,3.0,5.0,96,0.00,,,0.00,0,Wunderground v.1.15,2013-04-25 13:45:00,
2013-04-25 06:51:00,52.0,51.5,29.97,SE,134,5.0,5.0,98,0.00,,,0.00,0,Wunderground v.1.15,2013-04-25 13:51:00,
2013-04-25 06:56:00,51.7,51.2,29.96,ESE,111,7.0,10.0,98,0.00,,,0.00,0,Wunderground v.1.15,2013-04-25 13:56:00,
2013-04-25 07:01:00,51.7,51.2,29.97,SE,140,2.0,10.0,98,0.00,,,0.00,0,Wunderground v.1.15,2013-04-25 14:01:00,
2013-04-25 07:07:00,51.7,51.2,29.97,SE,134,6.0,10.0,98,0.00,,,0.00,0,Wunderground v.1.15,2013-04-25 14:07:00,
2013-04-25 07:13:00,51.7,51.4,29.97,ENE,71,3.0,9.0,99,0.00,,,0.00,0,Wunderground v.1.15,2013-04-25 14:13:00,
2013-04-25 07:19:00,51.8,51.5,29.97,ESE,113,14.0,14.0,99,0.00,,,0.00,0,Wunderground v.1.15,2013-04-25 14:19:00,
2013-04-25 07:25:00,52.0,51.5,29.97,SE,131,8.0,8.0,98,0.00,,,0.00,0,Wunderground v.1.15,2013-04-25 14:25:00,
2013-04-25 07:30:00,52.2,51.7,29.97,SE,129,3.0,3.0,98,0.00,,,0.00,0,Wunderground v.1.15,2013-04-25 14:30:00,
2013-04-25 07:35:00,52.4,51.6,29.97,ESE,110,9.0,9.0,97,0.00,,,0.00,0,Wunderground v.1.15,2013-04-25 14:35:00,
2013-04-25 07:41:00,52.5,51.7,29.97,SE,143,3.0,11.0,97,0.00,,,0.00,0,Wunderground v.1.15,2013-04-25 14:41:00,
2013-04-25 07:47:00,52.7,51.9,29.97,SSE,152,4.0,11.0,97,0.00,,,0.00,0,Wunderground v.1.15,2013-04-25 14:47:00,
2013-04-25 07:52:00,52.9,51.8,29.98,ESE,122,4.0,8.0,96,0.00,,,0.00,0,Wunderground v.1.15,2013-04-25 14:52:00,
2013-04-25 07:58:00,53.0,51.9,29.98,SE,126,8.0,10.0,96,0.00,,,0.00,0,Wunderground v.1.15,2013-04-25 14:58:00,
2013-04-25 08:03:00,53.2,52.1,29.97,SSE,167,3.0,14.0,96,0.00,,,0.00,0,Wunderground v.1.15,2013-04-25 15:03:00,
2013-04-25 08:09:00,53.4,52.0,29.98,SE,143,8.0,14.0,95,0.00,,,0.00,0,Wunderground v.1.15,2013-04-25 15:09:00,
2013-04-25 08:14:00,53.6,52.2,29.98,SE,129,3.0,6.0,95,0.00,,,0.00,0,Wunderground v.1.15,2013-04-25 15:14:00,
2013-04-25 08:20:00,54.1,52.4,29.98,ESE,107,8.0,8.0,94,0.00,,,0.00,0,Wunderground v.1.15,2013-04-25 15:20:00,
2013-04-25 08:25:00,54.3,52.6,29.98,ESE,120,2.0,8.0,94,0.00,,,0.00,0,Wunderground v.1.15,2013-04-25 15:25:00,
2013-04-25 08:31:00,54.6,52.6,29.99,SE,136,5.0,5.0,93,0.00,,,0.00,0,Wunderground v.1.15,2013-04-25 15:31:00,
2013-04-25 08:36:00,55.0,53.3,29.99,SE,143,2.0,8.0,94,0.00,,,0.00,0,Wunderground v.1.15,2013-04-25 15:36:00,
2013-04-25 08:42:00,55.5,52.9,29.99,SSE,152,3.0,4.0,91,0.00,,,0.00,0,Wunderground v.1.15,2013-04-25 15:42:00,
2013-04-25 08:47:00,55.9,53.3,29.99,SSE,152,4.0,7.0,91,0.00,,,0.00,0,Wunderground v.1.15,2013-04-25 15:47:00,
2013-04-25 08:53:00,56.2,53.3,30.00,SE,128,5.0,6.0,90,0.00,,,0.00,0,Wunderground v.1.15,2013-04-25 15:53:00,
2013-04-25 08:59:00,56.6,53.4,30.00,SE,129,4.0,6.0,89,0.00,,,0.00,0,Wunderground v.1.15,2013-04-25 15:59:00,
2013-04-25 09:04:00,57.0,53.8,30.00,SSE,154,3.0,19.0,89,0.00,,,0.00,0,Wunderground v.1.15,2013-04-25 16:04:00,
2013-04-25 09:10:00,57.5,54.6,30.00,SE,128,3.0,3.0,90,0.00,,,0.00,0,Wunderground v.1.15,2013-04-25 16:10:00,
2013-04-25 09:16:00,58.0,54.5,30.00,SE,141,4.0,5.0,88,0.00,,,0.00,0,Wunderground v.1.15,2013-04-25 16:16:00,
2013-04-25 09:21:00,58.3,54.4,30.00,SE,145,1.0,3.0,87,0.00,,,0.00,0,Wunderground v.1.15,2013-04-25 16:21:00,
2013-04-25 09:27:00,58.6,54.7,30.00,South,169,3.0,7.0,87,0.00,,,0.00,0,Wunderground v.1.15,2013-04-25 16:27:00,
2013-04-25 09:32:00,58.9,55.0,30.01,SE,127,1.0,2.0,87,0.00,,,0.00,0,Wunderground v.1.15,2013-04-25 16:32:00,
2013-04-25 09:38:00,59.2,54.7,30.01,SE,141,1.0,6.0,85,0.00,,,0.00,0,Wunderground v.1.15,2013-04-25 16:38:00,
2013-04-25 09:44:00,59.5,55.3,30.01,SSE,158,1.0,5.0,86,0.00,,,0.00,0,Wunderground v.1.15,2013-04-25 16:44:00,
2013-04-25 09:49:00,59.9,55.4,30.01,SSE,159,1.0,5.0,85,0.00,,,0.00,0,Wunderground v.1.15,2013-04-25 16:49:00,
2013-04-25 09:54:00,60.2,56.0,30.01,SSE,154,4.0,6.0,86,0.00,,,0.00,0,Wunderground v.1.15,2013-04-25 16:54:00,
2013-04-25 10:00:00,60.3,55.4,30.02,SSE,154,6.0,6.0,84,0.00,,,0.00,0,Wunderground v.1.15,2013-04-25 17:00:00,
2013-04-25 10:07:00,60.6,55.4,30.01,SSE,161,2.0,10.0,83,0.00,,,0.00,0,Wunderground v.1.15,2013-04-25 17:07:00,
2013-04-25 10:13:00,60.9,55.7,30.01,SSE,159,3.0,6.0,83,0.00,,,0.00,0,Wunderground v.1.15,2013-04-25 17:13:00,
2013-04-25 10:18:00,61.1,56.2,30.02,SSE,150,1.0,6.0,84,0.00,,,0.00,0,Wunderground v.1.15,2013-04-25 17:18:00,
2013-04-25 10:24:00,61.3,56.1,30.02,South,177,2.0,6.0,83,0.00,,,0.00,0,Wunderground v.1.15,2013-04-25 17:24:00,
2013-04-25 10:29:00,61.5,56.3,30.02,SE,144,4.0,6.0,83,0.00,,,0.00,0,Wunderground v.1.15,2013-04-25 17:29:00,
2013-04-25 10:34:00,61.5,56.3,30.01,ESE,119,4.0,4.0,83,0.00,,,0.00,0,Wunderground v.1.15,2013-04-25 17:34:00,
2013-04-25 10:40:00,61.8,56.2,30.02,SE,131,3.0,3.0,82,0.00,,,0.00,0,Wunderground v.1.15,2013-04-25 17:40:00,
2013-04-25 10:45:00,62.1,56.9,30.02,SSE,149,3.0,5.0,83,0.00,,,0.00,0,Wunderground v.1.15,2013-04-25 17:45:00,
2013-04-25 10:51:00,62.1,56.9,30.02,SSE,151,6.0,6.0,83,0.00,,,0.00,0,Wunderground v.1.15,2013-04-25 17:51:00,
2013-04-25 10:56:00,62.3,56.4,30.02,SSE,156,3.0,6.0,81,0.00,,,0.00,0,Wunderground v.1.15,2013-04-25 17:56:00,
2013-04-25 11:02:00,62.5,56.2,30.02,SSE,150,3.0,11.0,80,0.00,,,0.00,0,Wunderground v.1.15,2013-04-25 18:02:00,
2013-04-25 11:07:00,62.9,56.6,30.02,SE,144,3.0,11.0,80,0.00,,,0.00,0,Wunderground v.1.15,2013-04-25 18:07:00,
2013-04-25 11:13:00,62.9,56.3,30.02,SSE,159,1.0,9.0,79,0.00,,,0.00,0,Wunderground v.1.15,2013-04-25 18:13:00,
2013-04-25 11:18:00,63.2,57.3,30.02,SE,138,2.0,9.0,81,0.00,,,0.00,0,Wunderground v.1.15,2013-04-25 18:18:00,
2013-04-25 11:24:00,63.6,57.3,30.02,SSE,150,4.0,8.0,80,0.00,,,0.00,0,Wunderground v.1.15,2013-04-25 18:24:00,
2013-04-25 11:29:00,64.0,57.4,30.01,ESE,117,4.0,8.0,79,0.00,,,0.00,0,Wunderground v.1.15,2013-04-25 18:29:00,
2013-04-25 11:34:00,64.2,57.2,30.01,SE,146,5.0,5.0,78,0.00,,,0.00,0,Wunderground v.1.15,2013-04-25 18:34:00,
2013-04-25 11:40:00,64.6,56.9,30.01,SSE,153,2.0,2.0,76,0.00,,,0.00,0,Wunderground v.1.15,2013-04-25 18:40:00,
2013-04-25 11:45:00,64.9,57.9,30.01,SSE,152,4.0,5.0,78,0.00,,,0.00,0,Wunderground v.1.15,2013-04-25 18:45:00,
2013-04-25 11:51:00,65.1,57.3,30.01,SE,140,5.0,5.0,76,0.00,,,0.00,0,Wunderground v.1.15,2013-04-25 18:51:00,
2013-04-25 11:56:00,65.3,57.2,30.01,SE,137,6.0,6.0,75,0.00,,,0.00,0,Wunderground v.1.15,2013-04-25 18:56:00,
2013-04-25 12:03:00,65.8,58.0,30.01,SSE,161,4.0,11.0,76,0.00,,,0.00,0,Wunderground v.1.15,2013-04-25 19:03:00,
2013-04-25 12:09:00,66.3,57.8,30.01,SE,139,3.0,11.0,74,0.00,,,0.00,0,Wunderground v.1.15,2013-04-25 19:09:00,
2013-04-25 12:14:00,66.9,59.5,30.01,SSE,155,7.0,7.0,77,0.00,,,0.00,0,Wunderground v.1.15,2013-04-25 19:14:00,
2013-04-25 12:20:00,67.5,58.9,30.01,SSE,165,4.0,4.0,74,0.00,,,0.00,0,Wunderground v.1.15,2013-04-25 19:20:00,
2013-04-25 12:25:00,67.8,59.2,30.00,SSE,163,3.0,4.0,74,0.00,,,0.00,0,Wunderground v.1.15,2013-04-25 19:25:00,
2013-04-25 12:31:00,68.2,58.8,30.00,SSE,147,5.0,5.0,72,0.00,,,0.00,0,Wunderground v.1.15,2013-04-25 19:31:00,
2013-04-25 12:36:00,68.4,60.2,30.00,SSE,167,3.0,6.0,75,0.00,,,0.00,0,Wunderground v.1.15,2013-04-25 19:36:00,
2013-04-25 12:42:00,68.9,59.5,30.00,SSE,154,4.0,5.0,72,0.00,,,0.00,0,Wunderground v.1.15,2013-04-25 19:42:00,
2013-04-25 12:47:00,69.1,59.7,30.00,SSE,152,2.0,5.0,72,0.00,,,0.00,0,Wunderground v.1.15,2013-04-25 19:47:00,
2013-04-25 12:52:00,69.1,59.3,29.99,SE,143,4.0,7.0,71,0.00,,,0.00,0,Wunderground v.1.15,2013-04-25 19:52:00,
2013-04-25 12:58:00,69.4,60.0,29.99,ESE,107,3.0,7.0,72,0.00,,,0.00,0,Wunderground v.1.15,2013-04-25 19:58:00,
2013-04-25 13:03:00,70.0,59.8,30.00,ESE,113,1.0,10.0,70,0.00,,,0.00,0,Wunderground v.1.15,2013-04-25 20:03:00,
2013-04-25 13:09:00,70.5,60.2,29.99,SSE,155,2.0,10.0,70,0.00,,,0.00,0,Wunderground v.1.15,2013-04-25 20:09:00,
2013-04-25 14:42:00,77.5,62.0,29.99,SSE,168,2.0,9.0,59,0.00,,,0.00,0,Wunderground v.1.15,2013-04-25 21:42:00,
2013-04-25 14:47:00,77.5,62.0,29.99,SE,126,5.0,9.0,59,0.00,,,0.00,0,Wunderground v.1.15,2013-04-25 21:47:00,
2013-04-25 14:58:00,77.7,60.8,30.00,WSW,252,3.0,9.0,56,0.00,,,0.00,0,Wunderground v.1.15,2013-04-25 21:58:00,